Regional Weather Roundup
Issued by NWS

Home | Current Version | Previous Version | Text Only | Print | Product List | Glossary On
Versions: 1 2 3 4 5 6 7 8 9 10 11 12 13 14 15 16 17 18 19 20 21 22 23 24 25 26 27 28 29 30 31 32 33 34 35 36 37 38 39 40 41 42 43 44 45 46 47 48 49 50
000
ASUS45 KABQ 252110
RWRNM
WEATHER ROUNDUP FOR NEW MEXICO
NATIONAL WEATHER SERVICE ALBUQUERQUE NM
300 PM MDT FRI JUL 25 2014

NOTE: "FAIR" MEANS FEW OR NO CLOUDS BELOW 12,000 FEET AGL WITH NO
       SIGNIFICANT WEATHER OR OBSTRUCTIONS TO VISION.

      THIS PRODUCT IS RELEASED AS TWO VERSIONS.  ONE VERSION NEAR
      THE TOP OF THE HOUR CONTAINING PRELIMINARY DATA FROM ALBUQUERQUE
      AND OTHER STATIONS.  A FINAL VERSION WITH ADDITIONAL DATA IS
      ISSUED ABOUT 10 MINUTES AFTER THE HOUR.

NMZ501-503-504-510>518-252200-
NORTHWEST PLATEAU/NORTHCENTRAL MOUNTAINS

CITY           SKY/WX    TMP DP  RH WIND       PRES   REMARKS
FARMINGTON     SUNNY     93  41  16 NW8G26    30.14F
LOS ALAMOS     MOSUNNY   84  44  24 NW3       30.30F
SANTA FE       MOSUNNY   92  45  19 W9        30.20F
TAOS           PTSUNNY   86  43  22 NW12G23   30.25F
ANGEL FIRE     FAIR      78  43  28 W12       30.37F

$$
NMZ402-403-502-505>509-252200-
WESTCENTRAL MOUNTAINS/SOUTHWEST MOUNTAINS

CITY           SKY/WX    TMP DP  RH WIND       PRES   REMARKS
GALLUP         CLOUDY    88  39  17 W9        30.25F
GRANTS         MOSUNNY   86  37  17 CALM      30.27F
SILVER CITY    SUNNY     91  39  16 W8G16     30.19F

$$
NMZ407-409-411-412-252200-
SOUTHERN DESERTS

CITY           SKY/WX    TMP DP  RH WIND       PRES   REMARKS
LORDSBURG      FAIR      97  43  15 E9        30.07F
DEMING         SUNNY     98  45  16 N8        30.08F
LAS CRUCES     SUNNY     98  39  13 E14       30.11F
HOLLOMAN AFB   SUNNY     98  44  15 NW12      30.05F
ALAMOGORDO     MOSUNNY   97  45  16 SW8       30.08F
T OR C         SUNNY     96  40  14 VRB6      30.12F

$$
NMZ519>523-252200-
CENTRAL VALLEYS/CENTRAL HIGHLANDS

CITY           SKY/WX    TMP DP  RH WIND       PRES   REMARKS
ALBUQUERQUE    MOSUNNY   96  43  16 VRB5      30.15F
DOUBLE EAGLE   MOSUNNY   91  41  17 SW9       30.19F
MORIARTY ARPT  FAIR      92  40  16 N7        30.22F
CLINES CORNERS PTSUNNY   86  42  21 NW16G23   30.27F
BELEN          FAIR      94  42  16 E5        30.14F
SOCORRO        FAIR      98  38  12 SE5       30.10F

$$
NMZ524>526-539-540-252200-
SOUTHCENTRAL MOUNTAINS

CITY           SKY/WX    TMP DP  RH WIND       PRES   REMARKS
RUIDOSO        MOSUNNY   86  41  20 MISG      30.31F

$$
NMZ527>531-252200-
NORTHEAST HIGHLANDS/NORTHEAST PLAINS

CITY           SKY/WX    TMP DP  RH WIND       PRES   REMARKS
LAS VEGAS      PTSUNNY   89  42  19 VRB7      30.22F
RATON          NOT AVBL
CLAYTON        SUNNY    100  39  12 SE15G26   30.02F HX  95

$$
NMZ532>537-252200-
EASTCENTRAL PLAINS

CITY           SKY/WX    TMP DP  RH WIND       PRES   REMARKS
TUCUMCARI      SUNNY    103  35   9 SW10      29.99F HX  97
CANNON AFB     SUNNY     97  52  21 SW9G21    30.07F HX  95
CLOVIS AIRPORT NOT AVBL

$$
NMZ028-029-538-252200-
SOUTHEAST PLAINS

CITY           SKY/WX    TMP DP  RH WIND       PRES   REMARKS
ROSWELL        SUNNY    101  46  15 SE6       30.01F HX  97
ARTESIA        SUNNY     99  48  18 SE9G17    30.02F HX  95
CARLSBAD       MOSUNNY  101  45  15 E14G20    30.00F HX  97
HOBBS          MOSUNNY   95  48  20 E10G18    30.06F


$$



USA.gov is the U.S. government's official web portal to all federal, state and local government web resources and services.